TimeEST,TemperatureF,Dew PointF,Humidity,Sea Level PressureIn,VisibilityMPH,Wind Direction,Wind SpeedMPH,Gust SpeedMPH,PrecipitationIn,Events,Conditions,WindDirDegrees,DateUTC
12:35 AM,-9999,-9999,N/A,29.00,-9999.0,WNW,21.9,32.2,N/A,,Unknown,300,2013-02-18 05:35:00
12:55 AM,19.4,8.6,63,29.01,5.0,WNW,23.0,32.2,N/A,,Overcast,290,2013-02-18 05:55:00
1:15 AM,17.6,8.6,68,29.02,7.0,WNW,21.9,36.8,N/A,,Overcast,290,2013-02-18 06:15:00
1:35 AM,17.6,8.6,68,29.02,8.0,WNW,18.4,33.4,N/A,,Overcast,290,2013-02-18 06:35:00
1:55 AM,17.6,8.6,68,29.03,7.0,WNW,27.6,36.8,N/A,,Overcast,290,2013-02-18 06:55:00
2:15 AM,17.6,8.6,68,29.04,7.0,WNW,25.3,35.7,N/A,,Overcast,290,2013-02-18 07:15:00
2:35 AM,15.8,6.8,68,29.04,4.0,WNW,26.5,36.8,N/A,,Mostly Cloudy,290,2013-02-18 07:35:00
2:55 AM,15.8,6.8,68,29.05,3.0,WNW,25.3,43.7,N/A,,Mostly Cloudy,290,2013-02-18 07:55:00
3:15 AM,15.8,5.0,62,29.07,5.0,WNW,26.5,40.3,N/A,,Mostly Cloudy,300,2013-02-18 08:15:00
3:35 AM,17.6,6.8,63,29.08,4.0,WNW,26.5,39.1,N/A,,Partly Cloudy,290,2013-02-18 08:35:00
3:55 AM,17.6,6.8,63,29.09,9.0,WNW,25.3,35.7,N/A,,Scattered Clouds,290,2013-02-18 08:55:00
4:15 AM,17.6,8.6,68,29.11,5.0,WNW,27.6,41.4,N/A,,Overcast,290,2013-02-18 09:15:00
4:35 AM,17.6,6.8,63,29.12,4.0,WNW,26.5,40.3,N/A,,Overcast,290,2013-02-18 09:35:00
4:55 AM,17.6,6.8,63,29.14,6.0,WNW,27.6,40.3,N/A,,Overcast,290,2013-02-18 09:55:00
5:15 AM,17.6,6.8,63,29.16,10.0,WNW,23.0,34.5,N/A,,Overcast,290,2013-02-18 10:15:00
5:35 AM,15.8,6.8,68,29.18,10.0,West,19.6,25.3,N/A,,Overcast,280,2013-02-18 10:35:00
5:55 AM,14.0,5.0,67,29.20,10.0,West,23.0,31.1,N/A,,Overcast,270,2013-02-18 10:55:00
6:15 AM,14.0,3.2,62,29.21,9.0,West,24.2,33.4,N/A,,Overcast,270,2013-02-18 11:15:00
6:35 AM,14.0,3.2,62,29.21,10.0,West,19.6,33.4,N/A,,Overcast,280,2013-02-18 11:35:00
6:55 AM,14.0,3.2,62,29.23,9.0,WNW,20.7,34.5,N/A,,Overcast,290,2013-02-18 11:55:00
7:15 AM,15.8,3.2,58,29.23,4.0,WNW,23.0,36.8,N/A,,Overcast,290,2013-02-18 12:15:00
7:35 AM,15.8,3.2,58,29.25,9.0,West,19.6,33.4,N/A,,Overcast,280,2013-02-18 12:35:00
7:55 AM,15.8,3.2,58,29.26,10.0,West,21.9,31.1,N/A,,Overcast,280,2013-02-18 12:55:00
8:15 AM,15.8,3.2,58,29.27,10.0,WNW,23.0,36.8,N/A,,Overcast,290,2013-02-18 13:15:00
8:35 AM,15.8,3.2,58,29.27,10.0,WNW,20.7,31.1,N/A,,Overcast,290,2013-02-18 13:35:00
8:55 AM,15.8,3.2,58,29.28,10.0,WNW,23.0,29.9,N/A,,Overcast,290,2013-02-18 13:55:00
9:15 AM,15.8,5.0,62,29.29,10.0,WNW,20.7,29.9,N/A,,Overcast,290,2013-02-18 14:15:00
9:35 AM,17.6,6.8,63,29.29,10.0,WNW,21.9,33.4,N/A,,Overcast,290,2013-02-18 14:35:00
9:55 AM,17.6,5.0,58,29.29,10.0,WNW,18.4,32.2,N/A,,Overcast,290,2013-02-18 14:55:00
10:15 AM,19.4,6.8,58,29.30,10.0,WNW,18.4,26.5,N/A,,Overcast,290,2013-02-18 15:15:00
10:35 AM,19.4,5.0,54,29.30,10.0,WNW,24.2,29.9,N/A,,Overcast,290,2013-02-18 15:35:00
10:55 AM,19.4,6.8,58,29.31,9.0,West,24.2,34.5,N/A,,Overcast,280,2013-02-18 15:55:00
11:35 AM,21.2,6.8,54,29.32,10.0,West,20.7,29.9,N/A,,Overcast,280,2013-02-18 16:35:00
11:55 AM,21.2,6.8,54,29.33,9.0,West,25.3,38.0,N/A,,Overcast,280,2013-02-18 16:55:00
12:15 PM,21.2,8.6,58,29.34,9.0,WNW,25.3,34.5,N/A,,Overcast,290,2013-02-18 17:15:00
12:35 PM,21.2,8.6,58,29.35,10.0,West,21.9,31.1,N/A,,Overcast,280,2013-02-18 17:35:00
12:55 PM,23.0,10.4,59,29.35,7.0,WNW,24.2,38.0,N/A,,Overcast,290,2013-02-18 17:55:00
1:15 PM,23.0,8.6,54,29.36,10.0,WNW,20.7,38.0,N/A,,Overcast,290,2013-02-18 18:15:00
1:35 PM,24.8,8.6,50,29.37,10.0,WNW,20.7,31.1,N/A,,Overcast,290,2013-02-18 18:35:00
1:55 PM,24.8,10.4,54,29.37,10.0,WNW,23.0,31.1,N/A,,Overcast,300,2013-02-18 18:55:00
2:15 PM,26.6,10.4,51,29.39,10.0,WNW,17.3,29.9,N/A,,Overcast,300,2013-02-18 19:15:00
2:35 PM,26.6,10.4,51,29.39,10.0,West,25.3,32.2,N/A,,Overcast,280,2013-02-18 19:35:00
2:55 PM,26.6,8.6,47,29.40,10.0,WNW,16.1,34.5,N/A,,Overcast,300,2013-02-18 19:55:00
3:15 PM,26.6,10.4,51,29.41,10.0,WNW,18.4,33.4,N/A,,Mostly Cloudy,300,2013-02-18 20:15:00
3:35 PM,26.6,10.4,51,29.42,10.0,WNW,27.6,36.8,N/A,,Scattered Clouds,300,2013-02-18 20:35:00
3:55 PM,26.6,8.6,47,29.43,9.0,WNW,31.1,38.0,N/A,,Clear,300,2013-02-18 20:55:00
4:15 PM,24.8,10.4,54,29.45,10.0,WNW,23.0,36.8,N/A,,Partly Cloudy,290,2013-02-18 21:15:00
4:35 PM,24.8,8.6,50,29.47,10.0,WNW,21.9,34.5,N/A,,Clear,300,2013-02-18 21:35:00
4:55 PM,24.8,8.6,50,29.48,10.0,West,17.3,21.9,N/A,,Mostly Cloudy,270,2013-02-18 21:55:00
5:15 PM,24.8,8.6,50,29.50,10.0,West,17.3,25.3,N/A,,Mostly Cloudy,270,2013-02-18 22:15:00
5:35 PM,24.8,8.6,50,29.50,10.0,West,19.6,24.2,N/A,,Mostly Cloudy,280,2013-02-18 22:35:00
5:55 PM,24.8,6.8,46,29.52,10.0,West,19.6,24.2,N/A,,Scattered Clouds,270,2013-02-18 22:55:00
6:15 PM,23.0,6.8,50,29.53,10.0,West,23.0,27.6,N/A,,Clear,270,2013-02-18 23:15:00
6:35 PM,23.0,6.8,50,29.54,10.0,West,18.4,25.3,N/A,,Clear,280,2013-02-18 23:35:00
6:55 PM,23.0,6.8,50,29.54,10.0,West,19.6,28.8,N/A,,Clear,270,2013-02-18 23:55:00
7:15 PM,21.2,6.8,54,29.55,10.0,West,18.4,26.5,N/A,,Clear,280,2013-02-19 00:15:00
7:35 PM,21.2,6.8,54,29.57,10.0,West,16.1,27.6,N/A,,Clear,280,2013-02-19 00:35:00
7:55 PM,21.2,6.8,54,29.57,10.0,West,18.4,28.8,N/A,,Clear,280,2013-02-19 00:55:00
8:15 PM,21.2,6.8,54,29.58,10.0,WNW,17.3,27.6,N/A,,Clear,290,2013-02-19 01:15:00
8:35 PM,21.2,6.8,54,29.59,10.0,West,17.3,27.6,N/A,,Clear,280,2013-02-19 01:35:00
8:55 PM,21.2,6.8,54,29.60,10.0,West,17.3,26.5,N/A,,Clear,280,2013-02-19 01:55:00
9:15 PM,21.2,6.8,54,29.61,10.0,West,17.3,28.8,N/A,,Clear,280,2013-02-19 02:15:00
9:35 PM,21.2,6.8,54,29.61,10.0,WNW,12.7,20.7,N/A,,Clear,290,2013-02-19 02:35:00
9:55 PM,21.2,6.8,54,29.62,10.0,West,17.3,27.6,N/A,,Clear,280,2013-02-19 02:55:00
10:15 PM,19.4,5.0,54,29.63,10.0,West,17.3,28.8,N/A,,Clear,280,2013-02-19 03:15:00
10:35 PM,19.4,6.8,58,29.64,10.0,West,19.6,27.6,N/A,,Clear,280,2013-02-19 03:35:00
10:55 PM,19.4,5.0,54,29.66,10.0,West,18.4,31.1,N/A,,Clear,280,2013-02-19 03:55:00
11:15 PM,19.4,5.0,54,29.67,10.0,West,20.7,28.8,N/A,,Clear,280,2013-02-19 04:15:00
11:35 PM,19.4,5.0,54,29.69,10.0,West,21.9,33.4,N/A,,Clear,280,2013-02-19 04:35:00
11:55 PM,19.4,3.2,49,29.71,10.0,West,23.0,31.1,N/A,,Clear,280,2013-02-19 04:55:00